Private Wetterstation Wechselburg
Wetterdaten: Sonntag, 23.06.2013
Datum Zeit Temp. +2m Bodentemp. Temp.+5cm Temp. Wind Windchill X Diff Temp. Feuchte +2m Feuchte +5cm Sonnenschein Luftdruck Regen Wind Richtung Richtung Sonnenschein UV Taupunkt Windchill Windben
23.06.2013 00:00 16,6 C 26,1 C 16,5 C 16,3 C 15,6 C 0,0 C 81 % 81 % 0 % 1012,0 hPa 0,0 l/m 0,0 km/h (0 Bft) W 270 0 min 0,0 UV-I 13,3 C 15,6 C 0,0 km/h (0 Bft)
23.06.2013 00:05 16,6 C 26,1 C 16,5 C 16,3 C 15,6 C 0,0 C 81 % 81 % 0 % 1012,0 hPa 0,0 l/m 0,0 km/h (0 Bft) O-NO 67 0 min 0,0 UV-I 13,3 C 15,6 C 0,0 km/h (0 Bft)
23.06.2013 00:10 16,5 C 26,1 C 16,5 C 16,2 C 15,5 C 0,0 C 81 % 81 % 0 % 1012,0 hPa 0,0 l/m 0,0 km/h (0 Bft) SW 225 0 min 0,0 UV-I 13,2 C 15,5 C 0,0 km/h (0 Bft)
23.06.2013 00:15 16,4 C 26,1 C 16,4 C 16,1 C 15,4 C 0,0 C 81 % 82 % 0 % 1012,1 hPa 0,0 l/m 0,0 km/h (0 Bft) W 270 0 min 0,0 UV-I 13,1 C 15,4 C 0,0 km/h (0 Bft)
23.06.2013 00:20 16,3 C 26,1 C 16,3 C 15,9 C 15,1 C 0,0 C 81 % 81 % 0 % 1012,1 hPa 0,0 l/m 0,0 km/h (0 Bft) SW 225 0 min 0,0 UV-I 13,0 C 15,1 C 0,0 km/h (0 Bft)
23.06.2013 00:25 16,2 C 26,2 C 16,3 C 15,8 C 15,0 C 0,0 C 81 % 81 % 0 % 1012,1 hPa 0,0 l/m 0,0 km/h (0 Bft) O-NO 67 0 min 0,0 UV-I 12,9 C 15,0 C 0,0 km/h (0 Bft)
23.06.2013 00:30 16,1 C 26,2 C 16,1 C 15,7 C 15,0 C 0,0 C 81 % 81 % 0 % 1012,1 hPa 0,0 l/m 0,0 km/h (0 Bft) O-NO 67 0 min 0,0 UV-I 12,8 C 15,0 C 0,0 km/h (0 Bft)
23.06.2013 00:35 16,1 C 26,1 C 16,1 C 15,7 C 14,9 C 0,0 C 81 % 81 % 0 % 1012,1 hPa 0,0 l/m 0,0 km/h (0 Bft) O-NO 67 0 min 0,0 UV-I 12,8 C 14,9 C 0,0 km/h (0 Bft)
23.06.2013 00:41 15,8 C 26,1 C 15,9 C 15,5 C 14,9 C 0,0 C 81 % 81 % 0 % 1012,1 hPa 0,0 l/m 0,0 km/h (0 Bft) N 0 0 min 0,0 UV-I 12,5 C 14,9 C 0,0 km/h (0 Bft)
23.06.2013 00:57 15,6 C 26,1 C 15,8 C 15,3 C 14,7 C 0,0 C 82 % 82 % 0 % 1011,7 hPa 0,0 l/m 0,0 km/h (0 Bft) S 180 0 min 0,0 UV-I 12,5 C 14,7 C 0,0 km/h (0 Bft)
23.06.2013 00:58 15,5 C 26,1 C 15,9 C 15,2 C 14,6 C 0,0 C 82 % 82 % 0 % 1011,7 hPa 0,0 l/m 0,0 km/h (0 Bft) S 180 0 min 0,0 UV-I 12,4 C 14,6 C 0,0 km/h (0 Bft)
23.06.2013 01:00 15,5 C 26,1 C 15,9 C 15,2 C 14,6 C 0,0 C 82 % 82 % 0 % 1011,7 hPa 0,0 l/m 0,0 km/h (0 Bft) S 180 0 min 0,0 UV-I 12,4 C 14,6 C 0,0 km/h (0 Bft)
23.06.2013 01:05 15,4 C 26,1 C 15,9 C 15,1 C 14,6 C 0,0 C 82 % 82 % 0 % 1011,7 hPa 0,0 l/m 0,0 km/h (0 Bft) W 270 0 min 0,0 UV-I 12,3 C 14,6 C 0,0 km/h (0 Bft)
23.06.2013 01:10 15,3 C 26,1 C 15,9 C 15,0 C 14,5 C 0,0 C 82 % 82 % 0 % 1011,7 hPa 0,0 l/m 0,0 km/h (0 Bft) S 180 0 min 0,0 UV-I 12,2 C 14,5 C 0,0 km/h (0 Bft)
23.06.2013 01:15 15,2 C 26,1 C 15,9 C 14,9 C 14,4 C 0,0 C 82 % 82 % 0 % 1011,7 hPa 0,0 l/m 0,0 km/h (0 Bft) N 360 0 min 0,0 UV-I 12,1 C 14,4 C 0,0 km/h (0 Bft)
23.06.2013 01:20 15,1 C 26,1 C 15,7 C 14,8 C 14,3 C 0,0 C 83 % 82 % 0 % 1011,7 hPa 0,0 l/m 0,0 km/h (0 Bft) N-NW 337 0 min 0,0 UV-I 12,2 C 14,3 C 0,0 km/h (0 Bft)
23.06.2013 01:25 15,1 C 26,1 C 15,6 C 14,8 C 14,1 C 0,0 C 83 % 82 % 0 % 1011,7 hPa 0,0 l/m 0,0 km/h (0 Bft) W-SW 247 0 min 0,0 UV-I 12,2 C 14,1 C 0,0 km/h (0 Bft)
23.06.2013 01:30 14,9 C 26,1 C 15,6 C 14,6 C 13,9 C 0,0 C 83 % 83 % 0 % 1011,7 hPa 0,0 l/m 0,0 km/h (0 Bft) W-SW 247 0 min 0,0 UV-I 12,0 C 13,9 C 0,0 km/h (0 Bft)
23.06.2013 01:35 14,9 C 26,1 C 15,5 C 14,6 C 13,9 C 0,0 C 83 % 82 % 0 % 1011,6 hPa 0,0 l/m 0,0 km/h (0 Bft) W-SW 247 0 min 0,0 UV-I 12,0 C 13,9 C 0,0 km/h (0 Bft)
23.06.2013 01:40 14,7 C 26,1 C 15,5 C 14,4 C 13,7 C 0,0 C 83 % 83 % 0 % 1011,6 hPa 0,0 l/m 0,0 km/h (0 Bft) SW 225 0 min 0,0 UV-I 11,8 C 13,7 C 0,0 km/h (0 Bft)
23.06.2013 01:45 14,5 C 26,1 C 15,5 C 14,2 C 13,7 C 0,0 C 83 % 83 % 0 % 1011,6 hPa 0,7 l/m 0,0 km/h (0 Bft) W 270 0 min 0,0 UV-I 11,6 C 13,7 C 0,0 km/h (0 Bft)
23.06.2013 01:50 14,4 C 26,1 C 15,3 C 14,2 C 13,7 C 0,0 C 84 % 83 % 0 % 1011,6 hPa 0,0 l/m 0,0 km/h (0 Bft) N-NW 337 0 min 0,0 UV-I 11,7 C 13,7 C 0,0 km/h (0 Bft)
23.06.2013 01:55 14,3 C 26,1 C 15,2 C 14,1 C 13,6 C 0,0 C 84 % 83 % 0 % 1011,6 hPa 0,0 l/m 0,0 km/h (0 Bft) N-NW 337 0 min 0,0 UV-I 11,6 C 13,6 C 0,0 km/h (0 Bft)
23.06.2013 02:00 14,1 C 26,1 C 15,2 C 13,9 C 13,5 C 0,0 C 84 % 83 % 0 % 1011,6 hPa 0,0 l/m 0,0 km/h (0 Bft) N-NW 337 0 min 0,0 UV-I 11,4 C 13,5 C 0,0 km/h (0 Bft)
23.06.2013 02:05 14,0 C 26,1 C 15,2 C 13,8 C 13,4 C 0,0 C 84 % 83 % 0 % 1011,6 hPa 0,0 l/m 0,0 km/h (0 Bft) N-NW 337 0 min 0,0 UV-I 11,3 C 13,4 C 0,0 km/h (0 Bft)
23.06.2013 02:10 13,9 C 26,1 C 15,1 C 13,7 C 13,3 C 0,0 C 84 % 83 % 0 % 1011,6 hPa 0,0 l/m 0,0 km/h (0 Bft) W-NW 292 0 min 0,0 UV-I 11,2 C 13,3 C 0,0 km/h (0 Bft)
23.06.2013 02:15 13,9 C 26,1 C 15,1 C 13,7 C 13,3 C 0,0 C 84 % 83 % 0 % 1011,3 hPa 0,0 l/m 0,0 km/h (0 Bft) W 270 0 min 0,0 UV-I 11,2 C 13,3 C 0,0 km/h (0 Bft)
23.06.2013 02:20 13,7 C 26,1 C 14,9 C 13,6 C 13,3 C 0,0 C 85 % 83 % 0 % 1011,3 hPa 0,0 l/m 0,0 km/h (0 Bft) NW 315 0 min 0,0 UV-I 11,2 C 13,3 C 0,0 km/h (0 Bft)
23.06.2013 02:25 13,6 C 26,1 C 14,9 C 13,5 C 13,3 C 0,0 C 85 % 83 % 0 % 1011,3 hPa 0,0 l/m 0,0 km/h (0 Bft) N-NW 337 0 min 0,0 UV-I 11,1 C 13,3 C 0,0 km/h (0 Bft)
23.06.2013 02:30 13,5 C 26,2 C 14,9 C 13,4 C 13,2 C 0,0 C 85 % 83 % 0 % 1011,3 hPa 0,7 l/m 0,0 km/h (0 Bft) NO 45 0 min 0,0 UV-I 11,0 C 13,2 C 0,0 km/h (0 Bft)
23.06.2013 02:35 13,5 C 26,2 C 14,8 C 13,4 C 13,2 C 0,0 C 86 % 83 % 0 % 1011,6 hPa 0,0 l/m 0,0 km/h (0 Bft) O-NO 67 0 min 0,0 UV-I 11,2 C 13,2 C 0,0 km/h (0 Bft)
23.06.2013 02:40 13,3 C 26,2 C 14,9 C 13,3 C 13,2 C 0,0 C 85 % 84 % 0 % 1011,6 hPa 0,0 l/m 0,0 km/h (0 Bft) N-NO 22 0 min 0,0 UV-I 10,8 C 13,2 C 0,0 km/h (0 Bft)
23.06.2013 02:45 13,3 C 26,1 C 14,9 C 13,2 C 13,1 C 0,0 C 85 % 84 % 0 % 1011,6 hPa 0,0 l/m 0,0 km/h (0 Bft) N-NO 22 0 min 0,0 UV-I 10,8 C 13,1 C 0,0 km/h (0 Bft)
23.06.2013 02:50 13,2 C 26,1 C 14,8 C 13,2 C 13,1 C 0,0 C 85 % 84 % 0 % 1011,6 hPa 0,0 l/m 0,0 km/h (0 Bft) W 270 0 min 0,0 UV-I 10,7 C 13,1 C 0,0 km/h (0 Bft)
23.06.2013 02:55 13,1 C 26,1 C 14,7 C 13,1 C 13,1 C 0,0 C 85 % 83 % 0 % 1010,9 hPa 0,0 l/m 0,0 km/h (0 Bft) W-SW 247 0 min 0,0 UV-I 10,6 C 13,1 C 0,0 km/h (0 Bft)
23.06.2013 03:00 13,1 C 26,1 C 14,6 C 13,1 C 13,1 C 0,0 C 86 % 83 % 0 % 1010,9 hPa 0,0 l/m 0,0 km/h (0 Bft) O-NO 67 0 min 0,0 UV-I 10,8 C 13,1 C 0,0 km/h (0 Bft)
23.06.2013 03:05 13,1 C 26,1 C 14,7 C 13,1 C 13,1 C 0,0 C 86 % 83 % 0 % 1010,9 hPa 0,0 l/m 0,0 km/h (0 Bft) O-NO 67 0 min 0,0 UV-I 10,8 C 13,1 C 0,0 km/h (0 Bft)
23.06.2013 03:10 13,1 C 26,0 C 14,5 C 13,1 C 13,1 C 0,0 C 87 % 83 % 0 % 1010,9 hPa 0,0 l/m 0,0 km/h (0 Bft) N-NW 337 0 min 0,0 UV-I 11,0 C 13,1 C 0,0 km/h (0 Bft)
23.06.2013 03:15 13,1 C 26,0 C 14,6 C 13,1 C 13,0 C 0,0 C 87 % 83 % 0 % 1011,0 hPa 0,7 l/m 0,0 km/h (0 Bft) N-NW 337 0 min 0,0 UV-I 11,0 C 13,0 C 0,0 km/h (0 Bft)
23.06.2013 03:20 13,0 C 26,0 C 14,6 C 13,0 C 13,0 C 0,0 C 87 % 83 % 0 % 1011,0 hPa 0,0 l/m 0,0 km/h (0 Bft) W-SW 247 0 min 0,0 UV-I 10,9 C 13,0 C 0,0 km/h (0 Bft)
23.06.2013 03:25 12,9 C 26,1 C 14,6 C 13,0 C 13,0 C 0,1 C 87 % 83 % 0 % 1011,0 hPa 0,0 l/m 0,0 km/h (0 Bft) W-SW 247 0 min 0,0 UV-I 10,8 C 13,0 C 0,0 km/h (0 Bft)
23.06.2013 03:30 12,8 C 26,1 C 14,7 C 13,1 C 13,1 C 0,3 C 87 % 83 % 0 % 1011,0 hPa 0,0 l/m 0,0 km/h (0 Bft) W-SW 247 0 min 0,0 UV-I 10,7 C 13,1 C 0,0 km/h (0 Bft)
23.06.2013 03:35 12,9 C 26,1 C 14,6 C 13,2 C 13,2 C 0,3 C 87 % 83 % 0 % 1011,1 hPa 0,0 l/m 0,0 km/h (0 Bft) W-SW 247 0 min 0,0 UV-I 10,8 C 13,2 C 0,0 km/h (0 Bft)
23.06.2013 03:40 12,9 C 26,0 C 14,7 C 13,4 C 13,4 C 0,5 C 88 % 83 % 0 % 1011,1 hPa 0,0 l/m 0,0 km/h (0 Bft) W-SW 247 0 min 0,0 UV-I 11,0 C 13,4 C 0,0 km/h (0 Bft)
23.06.2013 03:45 12,9 C 26,0 C 14,8 C 13,4 C 13,4 C 0,5 C 88 % 84 % 0 % 1011,1 hPa 0,0 l/m 0,0 km/h (0 Bft) W-SW 247 0 min 0,0 UV-I 11,0 C 13,4 C 0,0 km/h (0 Bft)
23.06.2013 03:50 13,1 C 26,0 C 14,8 C 13,6 C 13,6 C 0,5 C 88 % 84 % 0 % 1011,1 hPa 0,0 l/m 0,0 km/h (0 Bft) W-SW 247 0 min 0,0 UV-I 11,2 C 13,6 C 0,0 km/h (0 Bft)
23.06.2013 03:55 13,1 C 26,0 C 14,9 C 13,6 C 13,6 C 0,5 C 88 % 84 % 0 % 1010,9 hPa 0,0 l/m 0,0 km/h (0 Bft) O-NO 67 0 min 0,0 UV-I 11,2 C 13,6 C 0,0 km/h (0 Bft)
23.06.2013 04:00 13,1 C 26,0 C 14,8 C 13,7 C 13,7 C 0,6 C 88 % 84 % 0 % 1010,9 hPa 0,7 l/m 0,0 km/h (0 Bft) N-NO 22 0 min 0,0 UV-I 11,2 C 13,7 C 0,0 km/h (0 Bft)
23.06.2013 04:05 13,1 C 25,9 C 14,8 C 13,7 C 13,7 C 0,6 C 88 % 84 % 0 % 1010,9 hPa 0,0 l/m 0,0 km/h (0 Bft) W-SW 247 0 min 0,0 UV-I 11,2 C 13,7 C 0,0 km/h (0 Bft)
23.06.2013 04:10 13,1 C 25,9 C 14,8 C 13,7 C 13,7 C 0,6 C 88 % 84 % 0 % 1010,9 hPa 0,0 l/m 0,0 km/h (0 Bft) NW 315 0 min 0,0 UV-I 11,2 C 13,7 C 0,0 km/h (0 Bft)
23.06.2013 04:15 13,1 C 25,9 C 14,9 C 13,5 C 13,5 C 0,4 C 88 % 84 % 0 % 1010,8 hPa 0,0 l/m 0,0 km/h (0 Bft) S-SW 202 0 min 0,0 UV-I 11,2 C 13,5 C 0,0 km/h (0 Bft)
23.06.2013 04:20 13,1 C 26,0 C 14,7 C 13,4 C 13,4 C 0,3 C 88 % 83 % 0 % 1010,8 hPa 0,0 l/m 0,0 km/h (0 Bft) O-NO 67 0 min 0,0 UV-I 11,2 C 13,4 C 0,0 km/h (0 Bft)
23.06.2013 04:25 13,1 C 26,0 C 14,7 C 13,3 C 13,3 C 0,2 C 88 % 83 % 0 % 1010,8 hPa 0,0 l/m 0,0 km/h (0 Bft) O-NO 67 0 min 0,0 UV-I 11,2 C 13,3 C 0,0 km/h (0 Bft)
23.06.2013 04:30 13,1 C 26,0 C 14,6 C 13,3 C 13,3 C 0,2 C 88 % 83 % 0 % 1010,8 hPa 0,0 l/m 0,0 km/h (0 Bft) O-NO 67 0 min 0,0 UV-I 11,2 C 13,3 C 0,0 km/h (0 Bft)
23.06.2013 04:35 13,1 C 26,0 C 14,6 C 13,3 C 13,3 C 0,2 C 88 % 83 % 0 % 1010,8 hPa 0,0 l/m 0,0 km/h (0 Bft) O 90 0 min 0,0 UV-I 11,2 C 13,3 C 0,0 km/h (0 Bft)
23.06.2013 04:40 13,0 C 26,2 C 14,6 C 13,3 C 13,3 C 0,3 C 88 % 83 % 0 % 1010,8 hPa 0,7 l/m 0,0 km/h (0 Bft) O 90 0 min 0,0 UV-I 11,1 C 13,3 C 0,0 km/h (0 Bft)
23.06.2013 04:45 13,1 C 26,2 C 14,7 C 13,3 C 13,3 C 0,2 C 88 % 83 % 0 % 1010,8 hPa 0,0 l/m 0,0 km/h (0 Bft) O-NO 67 0 min 0,0 UV-I 11,2 C 13,3 C 0,0 km/h (0 Bft)
23.06.2013 04:50 13,0 C 26,1 C 14,7 C 13,3 C 13,3 C 0,3 C 88 % 83 % 0 % 1010,8 hPa 0,0 l/m 0,0 km/h (0 Bft) O-NO 67 0 min 0,0 UV-I 11,1 C 13,3 C 0,0 km/h (0 Bft)
23.06.2013 04:55 13,1 C 26,1 C 14,5 C 13,3 C 13,3 C 0,2 C 88 % 83 % 0 % 1010,5 hPa 0,0 l/m 0,0 km/h (0 Bft) O-NO 67 0 min 0,0 UV-I 11,2 C 13,3 C 0,0 km/h (0 Bft)
23.06.2013 05:00 13,0 C 26,1 C 14,5 C 13,3 C 13,3 C 0,3 C 88 % 83 % 0 % 1010,5 hPa 0,0 l/m 0,0 km/h (0 Bft) O-NO 67 0 min 0,0 UV-I 11,1 C 13,3 C 0,0 km/h (0 Bft)
23.06.2013 05:05 12,9 C 26,1 C 14,4 C 13,1 C 13,1 C 0,2 C 88 % 83 % 0 % 1010,5 hPa 0,0 l/m 0,0 km/h (0 Bft) NO 45 0 min 0,0 UV-I 11,0 C 13,1 C 0,0 km/h (0 Bft)
23.06.2013 05:10 12,8 C 26,0 C 14,4 C 12,9 C 12,9 C 0,1 C 88 % 83 % 3 % 1010,5 hPa 0,0 l/m 0,0 km/h (0 Bft) NW 315 0 min 0,0 UV-I 10,9 C 12,9 C 0,0 km/h (0 Bft)
23.06.2013 05:15 12,9 C 25,9 C 14,3 C 12,9 C 12,9 C 0,0 C 88 % 83 % 0 % 1010,6 hPa 0,0 l/m 0,0 km/h (0 Bft) W-NW 292 0 min 0,0 UV-I 11,0 C 12,9 C 0,0 km/h (0 Bft)
23.06.2013 05:20 12,7 C 26,0 C 14,3 C 12,7 C 12,7 C 0,0 C 88 % 83 % 0 % 1010,6 hPa 0,7 l/m 0,0 km/h (0 Bft) O-NO 67 0 min 0,0 UV-I 10,8 C 12,7 C 0,0 km/h (0 Bft)
23.06.2013 05:25 12,6 C 25,9 C 14,3 C 12,7 C 12,7 C 0,1 C 88 % 83 % 3 % 1010,6 hPa 0,0 l/m 0,0 km/h (0 Bft) O-NO 67 0 min 0,0 UV-I 10,7 C 12,7 C 0,0 km/h (0 Bft)
23.06.2013 05:30 12,7 C 25,9 C 14,3 C 12,7 C 12,7 C 0,0 C 88 % 83 % 0 % 1010,6 hPa 0,0 l/m 0,2 km/h (0 Bft) W 270 0 min 0,0 UV-I 10,8 C 12,7 C 0,0 km/h (0 Bft)
23.06.2013 05:35 12,6 C 25,9 C 14,2 C 12,8 C 12,8 C 0,2 C 88 % 83 % 5 % 1010,8 hPa 0,0 l/m 0,2 km/h (0 Bft) W-NW 292 0 min 0,0 UV-I 10,7 C 12,8 C 0,0 km/h (0 Bft)
23.06.2013 05:40 12,5 C 26,0 C 14,3 C 12,8 C 12,8 C 0,3 C 88 % 83 % 8 % 1010,8 hPa 0,0 l/m 0,0 km/h (0 Bft) S-SO 157 0 min 0,0 UV-I 10,6 C 12,8 C 0,0 km/h (0 Bft)
23.06.2013 05:45 12,6 C 26,0 C 14,3 C 12,9 C 12,9 C 0,3 C 88 % 83 % 8 % 1010,8 hPa 0,0 l/m 0,0 km/h (0 Bft) O-NO 67 0 min 0,0 UV-I 10,7 C 12,9 C 0,0 km/h (0 Bft)
23.06.2013 05:50 12,7 C 26,0 C 14,3 C 13,0 C 13,0 C 0,3 C 89 % 83 % 8 % 1010,8 hPa 0,0 l/m 0,0 km/h (0 Bft) O-NO 67 0 min 0,0 UV-I 10,9 C 13,0 C 0,0 km/h (0 Bft)
23.06.2013 05:55 12,7 C 25,9 C 14,3 C 13,0 C 13,0 C 0,3 C 89 % 83 % 8 % 1010,7 hPa 0,7 l/m 0,0 km/h (0 Bft) O-NO 67 0 min 0,0 UV-I 10,9 C 13,0 C 0,0 km/h (0 Bft)
23.06.2013 06:00 12,7 C 25,9 C 14,3 C 13,1 C 13,1 C 0,4 C 89 % 83 % 11 % 1010,7 hPa 0,0 l/m 0,0 km/h (0 Bft) O-NO 67 0 min 0,0 UV-I 10,9 C 13,1 C 0,0 km/h (0 Bft)
23.06.2013 06:05 12,7 C 25,9 C 14,4 C 13,1 C 13,1 C 0,4 C 89 % 83 % 11 % 1010,7 hPa 0,0 l/m 0,0 km/h (0 Bft) W-SW 247 0 min 0,0 UV-I 10,9 C 13,1 C 0,0 km/h (0 Bft)
23.06.2013 06:10 12,7 C 25,8 C 14,5 C 13,3 C 13,3 C 0,6 C 89 % 83 % 16 % 1010,7 hPa 0,0 l/m 0,0 km/h (0 Bft) W 270 0 min 0,0 UV-I 10,9 C 13,3 C 0,0 km/h (0 Bft)
23.06.2013 06:15 12,6 C 25,8 C 14,6 C 13,5 C 13,5 C 0,9 C 89 % 83 % 24 % 1011,1 hPa 0,0 l/m 0,0 km/h (0 Bft) SW 225 0 min 0,0 UV-I 10,8 C 13,5 C 0,0 km/h (0 Bft)
23.06.2013 06:20 12,8 C 25,6 C 14,9 C 13,9 C 13,9 C 1,1 C 89 % 83 % 29 % 1011,1 hPa 0,0 l/m 0,0 km/h (0 Bft) SW 225 0 min 0,0 UV-I 11,0 C 13,9 C 0,0 km/h (0 Bft)
23.06.2013 06:25 12,8 C 25,6 C 15,1 C 14,3 C 14,3 C 1,5 C 90 % 83 % 39 % 1011,1 hPa 0,0 l/m 0,0 km/h (0 Bft) W 270 0 min 0,0 UV-I 11,2 C 14,3 C 1,6 km/h (1 Bft)
23.06.2013 06:30 13,1 C 25,5 C 15,5 C 14,9 C 14,9 C 1,8 C 90 % 83 % 47 % 1011,1 hPa 0,0 l/m 0,0 km/h (0 Bft) W 270 0 min 0,1 UV-I 11,5 C 14,9 C 0,0 km/h (0 Bft)
23.06.2013 06:35 13,3 C 25,5 C 15,7 C 15,3 C 15,3 C 2,0 C 90 % 83 % 53 % 1010,6 hPa 0,0 l/m 0,0 km/h (0 Bft) S-SW 202 0 min 0,1 UV-I 11,7 C 15,3 C 1,8 km/h (1 Bft)
23.06.2013 06:41 13,6 C 25,5 C 16,0 C 16,0 C 16,0 C 2,4 C 91 % 83 % 63 % 1010,6 hPa 0,7 l/m 0,2 km/h (0 Bft) N 0 6 min 0,0 UV-I 12,2 C 16,0 C 2,3 km/h (1 Bft)
23.06.2013 07:00 14,8 C 25,4 C 16,9 C 18,0 C 18,0 C 3,2 C 91 % 82 % 84 % 1010,3 hPa 0,0 l/m 0,5 km/h (0 Bft) SW 225 19 min 0,0 UV-I 13,3 C 18,0 C 3,2 km/h (1 Bft)
23.06.2013 07:05 15,1 C 25,4 C 16,9 C 18,0 C 18,0 C 2,9 C 91 % 82 % 76 % 1010,3 hPa 0,0 l/m 0,3 km/h (0 Bft) S 180 0 min 0,0 UV-I 13,6 C 18,0 C 0,0 km/h (0 Bft)
23.06.2013 07:10 15,2 C 25,4 C 17,0 C 18,0 C 18,0 C 2,8 C 90 % 82 % 74 % 1010,3 hPa 0,0 l/m 0,2 km/h (0 Bft) S-SW 202 0 min 0,0 UV-I 13,6 C 18,0 C 0,0 km/h (0 Bft)
23.06.2013 07:15 15,5 C 25,4 C 17,1 C 18,1 C 18,1 C 2,6 C 90 % 82 % 68 % 1011,0 hPa 0,0 l/m 0,3 km/h (0 Bft) S-SW 202 0 min 0,0 UV-I 13,9 C 18,1 C 3,2 km/h (1 Bft)
23.06.2013 07:20 15,7 C 25,4 C 17,3 C 18,4 C 18,4 C 2,7 C 90 % 82 % 71 % 1011,0 hPa 0,0 l/m 0,5 km/h (0 Bft) W-SW 247 0 min 0,0 UV-I 14,1 C 18,4 C 4,0 km/h (1 Bft)
23.06.2013 07:25 15,8 C 25,4 C 17,3 C 18,8 C 18,8 C 3,0 C 89 % 82 % 79 % 1011,0 hPa 0,0 l/m 0,5 km/h (0 Bft) NW 315 0 min 0,0 UV-I 14,0 C 18,8 C 0,0 km/h (0 Bft)
23.06.2013 07:30 16,1 C 25,4 C 17,5 C 19,1 C 19,1 C 3,0 C 88 % 82 % 79 % 1011,0 hPa 0,0 l/m 0,8 km/h (0 Bft) S 180 0 min 0,0 UV-I 14,1 C 19,1 C 6,1 km/h (2 Bft)
23.06.2013 07:35 16,3 C 25,2 C 17,6 C 19,1 C 19,1 C 2,8 C 88 % 82 % 74 % 1010,9 hPa 0,7 l/m 0,8 km/h (0 Bft) SW 225 0 min 0,0 UV-I 14,3 C 19,1 C 0,0 km/h (0 Bft)
23.06.2013 07:40 16,5 C 25,2 C 17,7 C 19,1 C 19,1 C 2,6 C 87 % 82 % 68 % 1010,9 hPa 0,0 l/m 0,6 km/h (0 Bft) O-NO 67 0 min 0,0 UV-I 14,3 C 19,1 C 0,0 km/h (0 Bft)
23.06.2013 07:45 16,6 C 25,2 C 17,7 C 19,0 C 19,0 C 2,4 C 86 % 82 % 63 % 1010,9 hPa 0,0 l/m 0,6 km/h (0 Bft) W 270 0 min 0,0 UV-I 14,2 C 19,0 C 2,9 km/h (1 Bft)
23.06.2013 07:50 16,9 C 25,2 C 17,7 C 19,0 C 19,0 C 2,1 C 85 % 82 % 55 % 1010,9 hPa 0,0 l/m 1,1 km/h (1 Bft) O-NO 67 0 min 0,0 UV-I 14,4 C 19,0 C 8,4 km/h (2 Bft)
23.06.2013 07:55 17,1 C 25,2 C 17,7 C 19,1 C 19,1 C 2,0 C 84 % 82 % 53 % 1010,8 hPa 0,0 l/m 1,1 km/h (1 Bft) O-SO 112 0 min 0,0 UV-I 14,4 C 19,1 C 0,0 km/h (0 Bft)
23.06.2013 08:00 17,2 C 25,2 C 17,9 C 19,4 C 19,4 C 2,2 C 84 % 82 % 58 % 1010,8 hPa 0,0 l/m 1,1 km/h (1 Bft) W-SW 247 0 min 0,0 UV-I 14,5 C 19,4 C 1,8 km/h (1 Bft)
23.06.2013 08:05 17,5 C 25,2 C 18,0 C 19,7 C 19,7 C 2,2 C 83 % 82 % 58 % 1010,8 hPa 0,0 l/m 1,1 km/h (1 Bft) S 180 0 min 0,0 UV-I 14,6 C 19,7 C 2,9 km/h (1 Bft)
23.06.2013 08:10 17,6 C 25,2 C 18,1 C 20,0 C 20,0 C 2,4 C 83 % 82 % 63 % 1010,8 hPa 0,0 l/m 1,1 km/h (1 Bft) SO 135 0 min 0,0 UV-I 14,7 C 20,0 C 2,1 km/h (1 Bft)
23.06.2013 08:15 17,8 C 25,2 C 18,3 C 20,2 C 20,2 C 2,4 C 82 % 82 % 63 % 1011,2 hPa 0,0 l/m 0,6 km/h (0 Bft) S 180 0 min 0,0 UV-I 14,7 C 20,2 C 0,0 km/h (0 Bft)
23.06.2013 08:20 18,0 C 25,2 C 18,4 C 20,6 C 20,6 C 2,6 C 82 % 82 % 68 % 1011,2 hPa 0,0 l/m 0,6 km/h (0 Bft) S-SO 157 0 min 0,0 UV-I 14,9 C 20,6 C 1,6 km/h (1 Bft)
23.06.2013 08:25 18,3 C 25,2 C 18,5 C 20,9 C 20,9 C 2,6 C 81 % 81 % 68 % 1011,2 hPa 0,0 l/m 0,8 km/h (0 Bft) S 180 0 min 0,0 UV-I 15,0 C 20,9 C 2,4 km/h (1 Bft)
23.06.2013 08:30 18,7 C 25,2 C 18,4 C 21,1 C 21,1 C 2,4 C 79 % 81 % 63 % 1011,2 hPa 0,0 l/m 1,4 km/h (1 Bft) NW 315 0 min 0,0 UV-I 15,0 C 21,1 C 3,1 km/h (1 Bft)
23.06.2013 08:35 18,8 C 25,2 C 18,5 C 21,1 C 21,1 C 2,3 C 79 % 81 % 61 % 1011,5 hPa 0,0 l/m 2,3 km/h (1 Bft) SO 135 0 min 0,0 UV-I 15,1 C 21,1 C 7,6 km/h (2 Bft)
23.06.2013 08:40 18,9 C 25,2 C 18,6 C 21,2 C 21,2 C 2,3 C 78 % 80 % 61 % 1011,5 hPa 0,0 l/m 3,2 km/h (1 Bft) S 180 0 min 0,0 UV-I 15,0 C 21,2 C 9,5 km/h (2 Bft)
23.06.2013 08:45 19,1 C 25,2 C 18,7 C 21,3 C 21,3 C 2,2 C 77 % 80 % 58 % 1011,5 hPa 0,0 l/m 3,7 km/h (1 Bft) W-SW 247 0 min 0,0 UV-I 15,0 C 21,3 C 3,5 km/h (1 Bft)
23.06.2013 08:50 19,2 C 25,2 C 18,8 C 21,4 C 21,4 C 2,2 C 77 % 80 % 58 % 1011,5 hPa 0,0 l/m 3,9 km/h (1 Bft) O-SO 112 0 min 0,0 UV-I 15,1 C 21,4 C 11,1 km/h (2 Bft)
23.06.2013 08:55 19,3 C 25,2 C 18,9 C 21,8 C 21,8 C 2,5 C 77 % 80 % 66 % 1011,4 hPa 0,0 l/m 3,1 km/h (1 Bft) S 180 0 min 0,0 UV-I 15,2 C 21,8 C 2,3 km/h (1 Bft)
23.06.2013 09:00 19,4 C 25,2 C 18,9 C 21,8 C 21,8 C 2,4 C 76 % 79 % 63 % 1011,4 hPa 0,0 l/m 1,4 km/h (1 Bft) O-NO 67 0 min 0,0 UV-I 15,1 C 21,8 C 0,0 km/h (0 Bft)
23.06.2013 09:05 19,5 C 25,2 C 18,9 C 21,7 C 21,7 C 2,2 C 75 % 79 % 58 % 1011,4 hPa 0,0 l/m 2,3 km/h (1 Bft) SO 135 0 min 0,0 UV-I 14,9 C 21,7 C 4,5 km/h (1 Bft)
23.06.2013 09:10 19,5 C 25,2 C 18,9 C 21,4 C 21,4 C 1,9 C 75 % 79 % 50 % 1011,4 hPa 0,0 l/m 3,2 km/h (1 Bft) NW 315 0 min 0,0 UV-I 14,9 C 21,4 C 2,4 km/h (1 Bft)
23.06.2013 09:15 19,5 C 25,2 C 19,0 C 21,4 C 21,4 C 1,9 C 74 % 79 % 50 % 1011,2 hPa 0,0 l/m 4,0 km/h (1 Bft) W 270 0 min 0,0 UV-I 14,7 C 21,4 C 4,5 km/h (1 Bft)
23.06.2013 09:20 19,6 C 25,2 C 19,0 C 21,5 C 21,5 C 1,9 C 74 % 79 % 50 % 1011,2 hPa 0,0 l/m 4,2 km/h (1 Bft) SW 225 0 min 0,0 UV-I 14,8 C 21,5 C 4,8 km/h (1 Bft)
23.06.2013 09:25 19,7 C 25,2 C 19,3 C 21,9 C 21,9 C 2,2 C 75 % 79 % 58 % 1011,2 hPa 0,0 l/m 3,2 km/h (1 Bft) W-SW 247 0 min 0,0 UV-I 15,1 C 21,9 C 6,3 km/h (2 Bft)
23.06.2013 09:30 19,9 C 25,2 C 19,5 C 22,6 C 22,6 C 2,7 C 73 % 78 % 71 % 1011,2 hPa 0,0 l/m 3,9 km/h (1 Bft) S 180 0 min 0,0 UV-I 14,9 C 22,6 C 14,2 km/h (3 Bft)
23.06.2013 09:35 19,9 C 25,2 C 19,5 C 22,7 C 22,7 C 2,8 C 72 % 77 % 74 % 1011,3 hPa 0,0 l/m 5,1 km/h (1 Bft) O 90 0 min 0,0 UV-I 14,7 C 22,7 C 6,4 km/h (2 Bft)
23.06.2013 09:40 19,8 C 25,2 C 19,5 C 22,4 C 22,4 C 2,6 C 73 % 77 % 68 % 1011,3 hPa 0,0 l/m 4,2 km/h (1 Bft) S-SO 157 0 min 0,0 UV-I 14,8 C 22,4 C 2,7 km/h (1 Bft)
23.06.2013 09:45 19,8 C 25,2 C 19,3 C 21,9 C 21,9 C 2,1 C 73 % 78 % 55 % 1011,3 hPa 0,0 l/m 2,9 km/h (1 Bft) S-SO 157 0 min 0,0 UV-I 14,8 C 21,9 C 2,7 km/h (1 Bft)
23.06.2013 09:50 19,8 C 25,1 C 19,2 C 21,5 C 21,5 C 1,7 C 72 % 77 % 45 % 1011,3 hPa 0,0 l/m 1,6 km/h (1 Bft) S 180 0 min 0,0 UV-I 14,6 C 21,5 C 4,2 km/h (1 Bft)
23.06.2013 09:55 19,9 C 25,2 C 19,3 C 21,7 C 21,7 C 1,8 C 72 % 77 % 47 % 1011,4 hPa 0,0 l/m 2,1 km/h (1 Bft) O-NO 67 0 min 0,0 UV-I 14,7 C 21,7 C 3,7 km/h (1 Bft)
23.06.2013 10:00 19,9 C 25,2 C 19,5 C 22,4 C 22,4 C 2,5 C 73 % 77 % 66 % 1011,4 hPa 0,0 l/m 2,6 km/h (1 Bft) S-SO 157 0 min 0,0 UV-I 14,9 C 22,4 C 2,1 km/h (1 Bft)
23.06.2013 10:05 20,1 C 25,2 C 19,6 C 22,7 C 22,7 C 2,6 C 73 % 77 % 68 % 1011,4 hPa 0,0 l/m 1,9 km/h (1 Bft) W-SW 247 0 min 0,0 UV-I 15,1 C 22,7 C 4,2 km/h (1 Bft)
23.06.2013 10:10 20,3 C 25,2 C 19,7 C 23,1 C 23,1 C 2,8 C 72 % 77 % 74 % 1011,4 hPa 0,0 l/m 2,4 km/h (1 Bft) S 180 0 min 0,0 UV-I 15,1 C 23,1 C 5,8 km/h (2 Bft)
23.06.2013 10:15 20,3 C 25,2 C 19,8 C 23,1 C 23,1 C 2,8 C 71 % 77 % 74 % 1012,1 hPa 0,0 l/m 3,7 km/h (1 Bft) S-SW 202 0 min 0,0 UV-I 14,9 C 23,1 C 6,6 km/h (2 Bft)
23.06.2013 10:20 20,2 C 25,2 C 19,9 C 22,7 C 22,7 C 2,5 C 71 % 76 % 66 % 1012,1 hPa 0,0 l/m 4,0 km/h (1 Bft) NW 315 0 min 0,0 UV-I 14,8 C 22,7 C 6,8 km/h (2 Bft)
23.06.2013 10:25 20,2 C 25,2 C 19,7 C 22,3 C 22,3 C 2,1 C 70 % 76 % 55 % 1012,1 hPa 0,0 l/m 5,0 km/h (1 Bft) S 180 0 min 0,0 UV-I 14,5 C 22,3 C 6,8 km/h (2 Bft)
23.06.2013 10:30 19,6 C 25,2 C 19,3 C 20,1 C 20,1 C 0,5 C 72 % 76 % 13 % 1012,1 hPa 0,0 l/m 5,3 km/h (1 Bft) W-SW 247 0 min 0,0 UV-I 14,4 C 20,1 C 3,9 km/h (1 Bft)
23.06.2013 10:35 19,3 C 25,2 C 19,2 C 19,8 C 19,8 C 0,5 C 73 % 77 % 13 % 1011,6 hPa 0,0 l/m 4,2 km/h (1 Bft) O 90 0 min 0,0 UV-I 14,3 C 19,8 C 3,1 km/h (1 Bft)
23.06.2013 10:40 19,5 C 25,2 C 19,3 C 20,9 C 20,9 C 1,4 C 74 % 78 % 37 % 1011,6 hPa 0,0 l/m 2,1 km/h (1 Bft) S-SO 157 0 min 0,0 UV-I 14,7 C 20,9 C 1,8 km/h (1 Bft)
23.06.2013 10:45 19,7 C 25,2 C 19,7 C 22,1 C 22,1 C 2,4 C 75 % 77 % 63 % 1011,6 hPa 0,0 l/m 1,4 km/h (1 Bft) SO 135 0 min 0,0 UV-I 15,1 C 22,1 C 4,5 km/h (1 Bft)
23.06.2013 10:50 20,0 C 25,2 C 19,6 C 22,5 C 22,5 C 2,5 C 73 % 77 % 66 % 1011,6 hPa 0,0 l/m 1,6 km/h (1 Bft) SW 225 0 min 0,0 UV-I 15,0 C 22,5 C 9,2 km/h (2 Bft)
23.06.2013 10:55 20,1 C 25,2 C 19,9 C 22,8 C 22,8 C 2,7 C 73 % 77 % 71 % 1011,6 hPa 0,0 l/m 2,1 km/h (1 Bft) SO 135 0 min 0,0 UV-I 15,1 C 22,8 C 4,8 km/h (1 Bft)
23.06.2013 11:00 20,2 C 25,2 C 19,9 C 23,6 C 23,6 C 3,4 C 70 % 76 % 89 % 1011,6 hPa 0,0 l/m 3,4 km/h (1 Bft) S-SO 157 5 min 0,0 UV-I 14,5 C 23,6 C 5,1 km/h (1 Bft)
23.06.2013 11:05 20,3 C 25,1 C 19,9 C 24,8 C 24,8 C 4,5 C 70 % 76 % 100 % 1011,6 hPa 0,0 l/m 4,0 km/h (1 Bft) SW 225 5 min 0,0 UV-I 14,6 C 24,8 C 3,7 km/h (1 Bft)
23.06.2013 11:10 20,6 C 25,1 C 20,1 C 26,0 C 26,0 C 5,4 C 72 % 76 % 100 % 1011,6 hPa 0,0 l/m 3,4 km/h (1 Bft) N-NO 22 5 min 0,0 UV-I 15,4 C 26,0 C 3,2 km/h (1 Bft)
23.06.2013 11:15 20,8 C 25,1 C 20,3 C 26,1 C 26,1 C 5,3 C 70 % 76 % 100 % 1011,1 hPa 0,0 l/m 3,9 km/h (1 Bft) SW 225 5 min 0,0 UV-I 15,1 C 26,1 C 10,3 km/h (2 Bft)
23.06.2013 11:20 20,7 C 25,1 C 19,9 C 23,9 C 23,9 C 3,2 C 69 % 76 % 84 % 1011,1 hPa 0,0 l/m 3,9 km/h (1 Bft) SW 225 0 min 0,0 UV-I 14,8 C 23,9 C 5,1 km/h (1 Bft)
23.06.2013 11:25 20,5 C 25,1 C 19,8 C 22,9 C 22,9 C 2,4 C 68 % 75 % 63 % 1011,1 hPa 0,0 l/m 4,5 km/h (1 Bft) N 360 0 min 0,0 UV-I 14,4 C 22,9 C 4,7 km/h (1 Bft)
23.06.2013 11:30 20,3 C 25,2 C 19,7 C 21,8 C 21,8 C 1,5 C 68 % 75 % 39 % 1011,1 hPa 0,0 l/m 5,6 km/h (1 Bft) S 180 0 min 0,0 UV-I 14,2 C 21,8 C 6,1 km/h (2 Bft)
23.06.2013 11:35 20,1 C 25,2 C 19,6 C 21,7 C 21,7 C 1,6 C 69 % 75 % 42 % 1011,5 hPa 0,0 l/m 5,6 km/h (1 Bft) NW 315 0 min 0,0 UV-I 14,2 C 21,7 C 9,2 km/h (2 Bft)
23.06.2013 11:40 20,3 C 25,1 C 19,9 C 22,7 C 22,7 C 2,4 C 70 % 76 % 63 % 1011,5 hPa 0,0 l/m 5,0 km/h (1 Bft) W 270 0 min 0,0 UV-I 14,6 C 22,7 C 5,5 km/h (1 Bft)
23.06.2013 11:45 20,4 C 25,1 C 20,0 C 23,9 C 23,9 C 3,5 C 71 % 76 % 92 % 1011,5 hPa 0,0 l/m 4,5 km/h (1 Bft) S-SW 202 5 min 0,0 UV-I 15,0 C 23,9 C 6,9 km/h (2 Bft)
23.06.2013 11:50 20,7 C 25,2 C 20,1 C 25,5 C 25,5 C 4,8 C 71 % 76 % 100 % 1011,5 hPa 0,0 l/m 3,5 km/h (1 Bft) S-SO 157 5 min 0,0 UV-I 15,2 C 25,5 C 4,0 km/h (1 Bft)
23.06.2013 11:55 20,9 C 25,2 C 20,0 C 26,0 C 26,0 C 5,1 C 70 % 76 % 100 % 1011,4 hPa 0,0 l/m 4,2 km/h (1 Bft) S 180 5 min 0,0 UV-I 15,2 C 26,0 C 11,7 km/h (2 Bft)
23.06.2013 12:00 21,1 C 25,2 C 20,2 C 26,2 C 26,2 C 5,1 C 67 % 74 % 100 % 1011,4 hPa 0,0 l/m 4,8 km/h (1 Bft) SW 225 5 min 0,0 UV-I 14,7 C 26,2 C 8,7 km/h (2 Bft)
23.06.2013 12:05 21,1 C 25,2 C 20,3 C 26,1 C 26,1 C 5,0 C 67 % 74 % 100 % 1011,4 hPa 0,0 l/m 4,3 km/h (1 Bft) S 180 5 min 0,0 UV-I 14,7 C 26,1 C 2,4 km/h (1 Bft)
23.06.2013 12:10 21,4 C 25,2 C 20,5 C 25,5 C 25,5 C 4,1 C 66 % 74 % 100 % 1011,4 hPa 0,0 l/m 4,5 km/h (1 Bft) S 180 5 min 0,0 UV-I 14,8 C 25,5 C 8,5 km/h (2 Bft)
23.06.2013 12:15 21,3 C 25,2 C 20,5 C 25,1 C 25,1 C 3,8 C 66 % 74 % 100 % 1011,8 hPa 0,0 l/m 5,3 km/h (1 Bft) W 270 5 min 0,0 UV-I 14,7 C 25,1 C 6,0 km/h (2 Bft)
23.06.2013 12:20 21,3 C 25,2 C 20,3 C 24,2 C 24,2 C 2,9 C 64 % 72 % 76 % 1011,8 hPa 0,0 l/m 5,1 km/h (1 Bft) S-SW 202 0 min 0,0 UV-I 14,2 C 24,2 C 11,9 km/h (2 Bft)
23.06.2013 12:25 21,2 C 25,2 C 20,3 C 23,5 C 23,5 C 2,3 C 65 % 73 % 61 % 1011,8 hPa 0,0 l/m 4,8 km/h (1 Bft) S 180 0 min 0,0 UV-I 14,4 C 23,5 C 3,7 km/h (1 Bft)
23.06.2013 12:30 21,2 C 25,2 C 20,5 C 23,4 C 23,4 C 2,2 C 65 % 73 % 58 % 1011,8 hPa 0,0 l/m 3,1 km/h (1 Bft) W-SW 247 0 min 0,0 UV-I 14,4 C 23,4 C 4,8 km/h (1 Bft)
23.06.2013 12:35 21,4 C 25,2 C 20,7 C 24,6 C 24,6 C 3,2 C 65 % 74 % 84 % 1011,3 hPa 0,0 l/m 2,6 km/h (1 Bft) W 270 0 min 0,0 UV-I 14,5 C 24,6 C 4,5 km/h (1 Bft)
23.06.2013 12:41 21,7 C 25,2 C 20,8 C 25,0 C 25,0 C 3,3 C 64 % 73 % 87 % 1011,3 hPa 0,0 l/m 4,2 km/h (1 Bft) N 0 6 min 0,0 UV-I 14,6 C 25,0 C 9,3 km/h (2 Bft)
23.06.2013 13:00 22,3 C 25,2 C 21,3 C 26,4 C 26,4 C 4,1 C 65 % 72 % 100 % 1011,3 hPa 0,0 l/m 2,7 km/h (1 Bft) W 270 19 min 0,0 UV-I 15,4 C 26,4 C 3,9 km/h (1 Bft)
23.06.2013 13:05 22,5 C 25,2 C 21,4 C 26,9 C 26,9 C 4,4 C 64 % 72 % 100 % 1011,3 hPa 0,0 l/m 1,9 km/h (1 Bft) S-SO 157 5 min 0,0 UV-I 15,3 C 26,9 C 2,9 km/h (1 Bft)
23.06.2013 13:10 22,9 C 25,2 C 21,5 C 27,6 C 27,6 C 4,7 C 63 % 71 % 100 % 1011,3 hPa 0,0 l/m 1,3 km/h (1 Bft) SO 135 5 min 0,0 UV-I 15,5 C 27,6 C 8,9 km/h (2 Bft)
23.06.2013 13:15 22,9 C 25,2 C 21,7 C 27,4 C 27,4 C 4,5 C 63 % 71 % 100 % 1011,1 hPa 0,0 l/m 2,1 km/h (1 Bft) N-NO 22 5 min 0,0 UV-I 15,5 C 27,4 C 4,2 km/h (1 Bft)
23.06.2013 13:20 23,2 C 25,3 C 21,8 C 28,0 C 28,0 C 4,8 C 62 % 69 % 100 % 1011,1 hPa 0,0 l/m 2,6 km/h (1 Bft) S-SW 202 5 min 0,0 UV-I 15,5 C 28,0 C 2,4 km/h (1 Bft)
23.06.2013 13:25 23,6 C 25,2 C 22,0 C 28,6 C 28,6 C 5,0 C 58 % 69 % 100 % 1011,1 hPa 0,0 l/m 2,6 km/h (1 Bft) NW 315 5 min 0,0 UV-I 14,8 C 28,6 C 1,9 km/h (1 Bft)
23.06.2013 13:30 23,9 C 25,2 C 22,2 C 29,2 C 29,2 C 5,3 C 60 % 70 % 100 % 1011,1 hPa 0,0 l/m 2,4 km/h (1 Bft) O 90 5 min 0,0 UV-I 15,7 C 29,2 C 3,7 km/h (1 Bft)
23.06.2013 13:35 24,3 C 25,2 C 22,3 C 29,7 C 29,7 C 5,4 C 58 % 68 % 100 % 1011,1 hPa 0,0 l/m 1,6 km/h (1 Bft) O-SO 112 5 min 0,0 UV-I 15,5 C 29,7 C 2,1 km/h (1 Bft)
23.06.2013 13:40 24,5 C 25,2 C 22,5 C 29,5 C 29,5 C 5,0 C 58 % 68 % 100 % 1011,1 hPa 0,0 l/m 2,3 km/h (1 Bft) S-SW 202 5 min 0,0 UV-I 15,7 C 29,5 C 2,7 km/h (1 Bft)
23.06.2013 13:45 24,5 C 25,2 C 22,3 C 29,4 C 29,4 C 4,9 C 55 % 66 % 100 % 1011,1 hPa 0,0 l/m 2,1 km/h (1 Bft) NO 45 5 min 0,0 UV-I 14,9 C 29,4 C 4,0 km/h (1 Bft)
23.06.2013 13:50 24,1 C 25,2 C 22,2 C 28,5 C 28,5 C 4,4 C 56 % 65 % 100 % 1011,1 hPa 0,0 l/m 1,9 km/h (1 Bft) W 270 5 min 0,0 UV-I 14,8 C 28,5 C 0,0 km/h (0 Bft)
23.06.2013 13:55 24,4 C 25,2 C 22,7 C 29,0 C 29,0 C 4,6 C 57 % 66 % 100 % 1011,1 hPa 0,0 l/m 1,6 km/h (1 Bft) S-SW 202 5 min 0,0 UV-I 15,3 C 29,0 C 0,0 km/h (0 Bft)
23.06.2013 14:00 24,7 C 25,2 C 23,3 C 30,1 C 30,1 C 5,4 C 55 % 65 % 100 % 1011,1 hPa 0,0 l/m 1,4 km/h (1 Bft) S 180 5 min 0,0 UV-I 15,0 C 30,1 C 6,8 km/h (2 Bft)
23.06.2013 14:05 24,9 C 25,3 C 23,6 C 30,4 C 30,4 C 5,5 C 56 % 64 % 100 % 1011,1 hPa 0,0 l/m 2,1 km/h (1 Bft) S 180 5 min 0,0 UV-I 15,5 C 30,4 C 6,0 km/h (2 Bft)
23.06.2013 14:10 25,1 C 25,3 C 23,6 C 30,8 C 30,8 C 5,7 C 53 % 62 % 100 % 1011,1 hPa 0,0 l/m 3,4 km/h (1 Bft) S-SW 202 5 min 0,0 UV-I 14,8 C 30,8 C 7,1 km/h (2 Bft)
23.06.2013 14:15 24,9 C 25,3 C 23,3 C 30,0 C 30,0 C 5,1 C 54 % 62 % 100 % 1011,0 hPa 0,0 l/m 2,6 km/h (1 Bft) O-SO 112 5 min 0,0 UV-I 14,9 C 30,0 C 0,0 km/h (0 Bft)
23.06.2013 14:20 25,1 C 25,3 C 23,2 C 30,6 C 30,6 C 5,5 C 54 % 62 % 100 % 1011,0 hPa 0,0 l/m 1,8 km/h (1 Bft) S-SO 157 5 min 0,0 UV-I 15,1 C 30,6 C 6,1 km/h (2 Bft)
23.06.2013 14:25 25,1 C 25,3 C 23,0 C 30,1 C 30,1 C 5,0 C 52 % 62 % 100 % 1011,0 hPa 0,0 l/m 2,7 km/h (1 Bft) SW 225 5 min 0,0 UV-I 14,5 C 30,1 C 6,1 km/h (2 Bft)
23.06.2013 14:30 24,4 C 25,3 C 22,9 C 28,3 C 28,3 C 3,9 C 54 % 63 % 100 % 1011,0 hPa 0,0 l/m 3,1 km/h (1 Bft) S-SW 202 5 min 0,0 UV-I 14,5 C 28,3 C 3,9 km/h (1 Bft)
23.06.2013 14:35 24,3 C 25,3 C 22,7 C 27,9 C 27,9 C 3,6 C 54 % 64 % 95 % 1011,6 hPa 0,0 l/m 2,4 km/h (1 Bft) O 90 5 min 0,0 UV-I 14,4 C 27,9 C 5,8 km/h (2 Bft)
23.06.2013 14:40 24,1 C 25,3 C 22,8 C 27,4 C 27,4 C 3,3 C 51 % 63 % 87 % 1011,6 hPa 0,0 l/m 5,3 km/h (1 Bft) S-SO 157 5 min 0,0 UV-I 13,3 C 27,4 C 17,9 km/h (3 Bft)
23.06.2013 14:45 24,0 C 25,3 C 22,8 C 27,2 C 27,2 C 3,2 C 55 % 64 % 84 % 1011,6 hPa 0,0 l/m 6,6 km/h (2 Bft) S-SW 202 0 min 0,0 UV-I 14,4 C 27,2 C 3,7 km/h (1 Bft)
23.06.2013 14:50 24,2 C 25,3 C 23,1 C 27,9 C 27,9 C 3,7 C 53 % 64 % 97 % 1011,6 hPa 0,0 l/m 5,1 km/h (1 Bft) SO 135 5 min 0,0 UV-I 14,0 C 27,9 C 4,2 km/h (1 Bft)
23.06.2013 14:55 24,0 C 25,3 C 22,9 C 27,4 C 27,4 C 3,4 C 53 % 64 % 89 % 1011,1 hPa 0,0 l/m 5,1 km/h (1 Bft) SW 225 5 min 0,0 UV-I 13,8 C 27,4 C 13,2 km/h (3 Bft)
23.06.2013 15:00 23,5 C 25,3 C 22,5 C 26,1 C 26,1 C 2,6 C 54 % 64 % 68 % 1011,1 hPa 0,0 l/m 6,1 km/h (2 Bft) W-NW 292 0 min 0,0 UV-I 13,6 C 26,1 C 6,0 km/h (2 Bft)
23.06.2013 15:05 23,5 C 25,3 C 22,5 C 26,0 C 26,0 C 2,5 C 55 % 64 % 66 % 1011,1 hPa 0,0 l/m 5,3 km/h (1 Bft) S-SW 202 0 min 0,0 UV-I 13,9 C 26,0 C 14,5 km/h (3 Bft)
23.06.2013 15:10 23,1 C 25,3 C 22,3 C 25,4 C 25,4 C 2,3 C 56 % 63 % 61 % 1011,1 hPa 0,0 l/m 5,6 km/h (1 Bft) N-NO 22 0 min 0,0 UV-I 13,8 C 25,4 C 1,6 km/h (1 Bft)
23.06.2013 15:15 22,9 C 25,3 C 22,1 C 24,9 C 24,9 C 2,0 C 56 % 63 % 53 % 1010,9 hPa 0,0 l/m 5,1 km/h (1 Bft) SO 135 0 min 0,0 UV-I 13,6 C 24,9 C 9,5 km/h (2 Bft)
23.06.2013 15:20 22,6 C 25,4 C 21,9 C 24,5 C 24,5 C 1,9 C 57 % 63 % 50 % 1010,9 hPa 0,0 l/m 2,9 km/h (1 Bft) W 270 0 min 0,0 UV-I 13,6 C 24,5 C 2,9 km/h (1 Bft)
23.06.2013 15:25 22,7 C 25,4 C 21,9 C 24,9 C 24,9 C 2,2 C 58 % 65 % 58 % 1010,9 hPa 0,0 l/m 3,1 km/h (1 Bft) SW 225 0 min 0,0 UV-I 14,0 C 24,9 C 9,0 km/h (2 Bft)
23.06.2013 15:30 22,7 C 25,4 C 22,0 C 25,1 C 25,1 C 2,4 C 59 % 64 % 63 % 1010,9 hPa 0,0 l/m 3,9 km/h (1 Bft) O-SO 112 0 min 0,0 UV-I 14,3 C 25,1 C 5,5 km/h (1 Bft)
23.06.2013 15:35 22,7 C 25,4 C 22,1 C 25,5 C 25,5 C 2,8 C 59 % 65 % 74 % 1011,0 hPa 0,0 l/m 4,0 km/h (1 Bft) W 270 0 min 0,0 UV-I 14,3 C 25,5 C 7,1 km/h (2 Bft)
23.06.2013 15:40 22,9 C 25,4 C 22,3 C 26,0 C 26,0 C 3,1 C 59 % 66 % 82 % 1011,0 hPa 0,0 l/m 3,1 km/h (1 Bft) S-SO 157 0 min 0,0 UV-I 14,5 C 26,0 C 5,5 km/h (1 Bft)
23.06.2013 15:45 22,8 C 25,5 C 22,3 C 26,0 C 26,0 C 3,2 C 59 % 66 % 84 % 1011,0 hPa 0,0 l/m 3,9 km/h (1 Bft) W-SW 247 0 min 0,0 UV-I 14,4 C 26,0 C 8,9 km/h (2 Bft)
23.06.2013 15:50 22,8 C 25,5 C 22,3 C 26,0 C 26,0 C 3,2 C 58 % 66 % 84 % 1011,0 hPa 0,0 l/m 5,5 km/h (1 Bft) W 270 0 min 0,0 UV-I 14,1 C 26,0 C 6,3 km/h (2 Bft)
23.06.2013 15:55 23,1 C 25,5 C 22,4 C 26,1 C 26,1 C 3,0 C 59 % 65 % 79 % 1011,0 hPa 0,0 l/m 5,3 km/h (1 Bft) SW 225 0 min 0,0 UV-I 14,6 C 26,1 C 5,6 km/h (1 Bft)
23.06.2013 16:00 23,6 C 25,4 C 22,8 C 28,2 C 28,2 C 4,6 C 58 % 67 % 100 % 1011,0 hPa 0,0 l/m 3,4 km/h (1 Bft) N-NO 22 5 min 0,0 UV-I 14,8 C 28,2 C 5,3 km/h (1 Bft)
23.06.2013 16:05 23,7 C 25,4 C 22,9 C 28,5 C 28,5 C 4,8 C 57 % 65 % 100 % 1011,0 hPa 0,0 l/m 4,2 km/h (1 Bft) N 360 5 min 0,0 UV-I 14,7 C 28,5 C 10,3 km/h (2 Bft)
23.06.2013 16:10 23,6 C 25,4 C 22,9 C 27,8 C 27,8 C 4,2 C 57 % 64 % 100 % 1011,0 hPa 0,0 l/m 5,3 km/h (1 Bft) S-SO 157 5 min 0,0 UV-I 14,6 C 27,8 C 4,0 km/h (1 Bft)
23.06.2013 16:15 23,6 C 25,4 C 22,8 C 27,7 C 27,7 C 4,1 C 56 % 62 % 100 % 1010,8 hPa 0,0 l/m 4,3 km/h (1 Bft) W-NW 292 5 min 0,0 UV-I 14,3 C 27,7 C 3,5 km/h (1 Bft)
23.06.2013 16:20 23,5 C 25,4 C 22,6 C 26,9 C 26,9 C 3,4 C 56 % 64 % 89 % 1010,8 hPa 0,0 l/m 4,3 km/h (1 Bft) W-SW 247 5 min 0,0 UV-I 14,2 C 26,9 C 10,1 km/h (2 Bft)
23.06.2013 16:25 23,2 C 25,4 C 22,4 C 26,0 C 26,0 C 2,8 C 57 % 65 % 74 % 1010,8 hPa 0,0 l/m 5,1 km/h (1 Bft) W 270 0 min 0,0 UV-I 14,2 C 26,0 C 5,0 km/h (1 Bft)
23.06.2013 16:30 23,1 C 25,5 C 22,3 C 25,1 C 25,1 C 2,0 C 58 % 66 % 53 % 1010,8 hPa 0,0 l/m 5,1 km/h (1 Bft) N-NO 22 0 min 0,0 UV-I 14,4 C 25,1 C 8,4 km/h (2 Bft)
23.06.2013 16:35 23,1 C 25,5 C 22,3 C 25,3 C 25,3 C 2,2 C 54 % 65 % 58 % 1010,9 hPa 0,0 l/m 5,5 km/h (1 Bft) S 180 0 min 0,0 UV-I 13,3 C 25,3 C 13,4 km/h (3 Bft)
23.06.2013 16:40 23,0 C 25,5 C 22,7 C 25,9 C 25,9 C 2,9 C 54 % 63 % 76 % 1010,9 hPa 0,0 l/m 7,1 km/h (2 Bft) S-SW 202 0 min 0,0 UV-I 13,2 C 25,9 C 11,6 km/h (2 Bft)
23.06.2013 16:45 23,3 C 25,4 C 22,7 C 26,2 C 26,2 C 2,9 C 54 % 63 % 76 % 1010,9 hPa 0,0 l/m 7,1 km/h (2 Bft) O-SO 112 0 min 0,0 UV-I 13,5 C 26,2 C 2,4 km/h (1 Bft)
23.06.2013 16:50 23,1 C 25,5 C 22,5 C 25,9 C 25,9 C 2,8 C 55 % 62 % 74 % 1010,9 hPa 0,0 l/m 6,3 km/h (2 Bft) W 270 0 min 0,0 UV-I 13,6 C 25,9 C 4,8 km/h (1 Bft)
23.06.2013 16:55 23,1 C 25,6 C 22,5 C 26,1 C 26,1 C 3,0 C 53 % 61 % 79 % 1011,1 hPa 0,0 l/m 5,8 km/h (2 Bft) O-SO 112 0 min 0,0 UV-I 13,0 C 26,1 C 4,0 km/h (1 Bft)
23.06.2013 17:00 23,2 C 25,6 C 22,7 C 26,3 C 26,3 C 3,1 C 53 % 61 % 82 % 1011,1 hPa 0,0 l/m 6,8 km/h (2 Bft) W-SW 247 0 min 0,0 UV-I 13,1 C 26,3 C 18,5 km/h (3 Bft)
23.06.2013 17:05 23,4 C 25,5 C 22,7 C 26,8 C 26,8 C 3,4 C 53 % 61 % 89 % 1011,1 hPa 0,0 l/m 7,9 km/h (2 Bft) NW 315 5 min 0,0 UV-I 13,3 C 26,8 C 13,7 km/h (3 Bft)
23.06.2013 17:10 23,0 C 25,6 C 22,4 C 25,8 C 25,8 C 2,8 C 53 % 61 % 74 % 1011,1 hPa 0,0 l/m 7,9 km/h (2 Bft) S-SW 202 0 min 0,0 UV-I 12,9 C 25,8 C 22,5 km/h (4 Bft)
23.06.2013 17:15 22,9 C 25,6 C 22,4 C 25,8 C 25,8 C 2,9 C 53 % 61 % 76 % 1011,2 hPa 0,0 l/m 9,2 km/h (2 Bft) SO 135 0 min 0,0 UV-I 12,8 C 25,8 C 18,5 km/h (3 Bft)
23.06.2013 17:20 22,9 C 25,6 C 22,5 C 25,7 C 25,7 C 2,8 C 52 % 60 % 74 % 1011,2 hPa 0,0 l/m 11,1 km/h (2 Bft) SW 225 0 min 0,0 UV-I 12,5 C 25,7 C 13,7 km/h (3 Bft)
23.06.2013 17:25 23,1 C 25,6 C 22,4 C 25,8 C 25,8 C 2,7 C 51 % 58 % 71 % 1011,2 hPa 0,0 l/m 10,8 km/h (2 Bft) SW 225 0 min 0,0 UV-I 12,4 C 25,8 C 15,6 km/h (3 Bft)
23.06.2013 17:30 22,9 C 25,6 C 22,5 C 25,9 C 25,9 C 3,0 C 49 % 58 % 79 % 1011,2 hPa 0,0 l/m 10,0 km/h (2 Bft) SW 225 0 min 0,0 UV-I 11,6 C 25,9 C 15,0 km/h (3 Bft)
23.06.2013 17:35 22,9 C 25,6 C 22,4 C 25,9 C 25,9 C 3,0 C 50 % 57 % 79 % 1011,2 hPa 0,0 l/m 9,7 km/h (2 Bft) W-SW 247 0 min 0,0 UV-I 11,9 C 25,9 C 12,9 km/h (3 Bft)
23.06.2013 17:40 22,8 C 25,6 C 22,3 C 26,0 C 26,0 C 3,2 C 49 % 57 % 84 % 1011,2 hPa 0,0 l/m 8,9 km/h (2 Bft) W-SW 247 0 min 0,0 UV-I 11,5 C 26,0 C 16,6 km/h (3 Bft)
23.06.2013 17:45 22,9 C 25,6 C 22,3 C 26,0 C 26,0 C 3,1 C 50 % 57 % 82 % 1011,2 hPa 0,0 l/m 8,2 km/h (2 Bft) S 180 0 min 0,0 UV-I 11,9 C 26,0 C 8,4 km/h (2 Bft)
23.06.2013 17:50 22,8 C 25,6 C 22,2 C 26,3 C 26,3 C 3,5 C 49 % 58 % 92 % 1011,2 hPa 0,0 l/m 6,8 km/h (2 Bft) SW 225 5 min 0,0 UV-I 11,5 C 26,3 C 11,6 km/h (2 Bft)
23.06.2013 17:55 22,8 C 25,6 C 22,1 C 26,4 C 26,4 C 3,6 C 48 % 56 % 95 % 1011,1 hPa 0,0 l/m 6,6 km/h (2 Bft) W 270 5 min 0,0 UV-I 11,2 C 26,4 C 16,9 km/h (3 Bft)
23.06.2013 18:00 22,9 C 25,6 C 22,2 C 26,4 C 26,4 C 3,5 C 48 % 57 % 92 % 1011,1 hPa 0,0 l/m 6,8 km/h (2 Bft) O 90 5 min 0,0 UV-I 11,3 C 26,4 C 7,9 km/h (2 Bft)
23.06.2013 18:05 22,9 C 25,6 C 22,2 C 26,6 C 26,6 C 3,7 C 49 % 57 % 97 % 1011,1 hPa 0,0 l/m 6,6 km/h (2 Bft) SW 225 5 min 0,0 UV-I 11,6 C 26,6 C 14,3 km/h (3 Bft)
23.06.2013 18:10 22,9 C 25,6 C 22,2 C 26,6 C 26,6 C 3,7 C 49 % 57 % 97 % 1011,1 hPa 0,0 l/m 5,5 km/h (1 Bft) W 270 5 min 0,0 UV-I 11,6 C 26,6 C 4,8 km/h (1 Bft)
23.06.2013 18:15 22,8 C 25,6 C 22,1 C 26,8 C 26,8 C 4,0 C 50 % 57 % 100 % 1010,9 hPa 0,0 l/m 4,7 km/h (1 Bft) SO 135 5 min 0,0 UV-I 11,8 C 26,8 C 3,5 km/h (1 Bft)
23.06.2013 18:20 23,0 C 25,6 C 22,1 C 27,0 C 27,0 C 4,0 C 47 % 57 % 100 % 1010,9 hPa 0,0 l/m 5,0 km/h (1 Bft) W-NW 292 5 min 0,0 UV-I 11,1 C 27,0 C 10,8 km/h (2 Bft)
23.06.2013 18:25 23,1 C 25,6 C 22,1 C 26,8 C 26,8 C 3,7 C 48 % 57 % 97 % 1010,9 hPa 0,0 l/m 5,8 km/h (2 Bft) W-SW 247 5 min 0,0 UV-I 11,5 C 26,8 C 4,5 km/h (1 Bft)
23.06.2013 18:30 22,9 C 25,6 C 22,1 C 26,8 C 26,8 C 3,9 C 46 % 57 % 100 % 1010,9 hPa 0,0 l/m 6,4 km/h (2 Bft) W-SW 247 5 min 0,0 UV-I 10,7 C 26,8 C 17,2 km/h (3 Bft)
23.06.2013 18:35 22,8 C 25,6 C 22,0 C 26,6 C 26,6 C 3,8 C 47 % 56 % 100 % 1011,2 hPa 0,0 l/m 5,8 km/h (2 Bft) W 270 5 min 0,0 UV-I 10,9 C 26,6 C 7,7 km/h (2 Bft)
23.06.2013 18:41 22,9 C 25,6 C 21,8 C 26,0 C 26,0 C 3,1 C 47 % 56 % 82 % 1011,2 hPa 0,0 l/m 5,8 km/h (2 Bft) N 0 0 min 0,0 UV-I 11,0 C 26,0 C 6,4 km/h (2 Bft)
23.06.2013 19:00 21,8 C 25,6 C 21,1 C 23,1 C 23,1 C 1,3 C 50 % 58 % 34 % 1011,0 hPa 0,0 l/m 6,4 km/h (2 Bft) SW 225 0 min 0,0 UV-I 10,9 C 23,1 C 11,7 km/h (2 Bft)
23.06.2013 19:05 21,9 C 25,6 C 21,3 C 23,9 C 23,9 C 2,0 C 51 % 59 % 53 % 1011,0 hPa 0,0 l/m 6,4 km/h (2 Bft) W 270 0 min 0,0 UV-I 11,3 C 23,9 C 7,6 km/h (2 Bft)
23.06.2013 19:10 22,0 C 25,6 C 21,4 C 24,8 C 24,8 C 2,8 C 53 % 60 % 74 % 1011,0 hPa 0,0 l/m 6,0 km/h (2 Bft) SW 225 0 min 0,0 UV-I 12,0 C 24,8 C 7,2 km/h (2 Bft)
23.06.2013 19:15 21,9 C 25,6 C 21,5 C 25,0 C 25,0 C 3,1 C 55 % 61 % 82 % 1011,1 hPa 0,0 l/m 5,8 km/h (2 Bft) S 180 5 min 0,0 UV-I 12,4 C 25,0 C 6,9 km/h (2 Bft)
23.06.2013 19:20 21,6 C 25,6 C 21,3 C 24,9 C 24,9 C 3,3 C 56 % 62 % 87 % 1011,1 hPa 0,0 l/m 5,8 km/h (2 Bft) W 270 5 min 0,0 UV-I 12,4 C 24,9 C 4,0 km/h (1 Bft)
23.06.2013 19:25 21,6 C 25,6 C 21,2 C 24,9 C 24,9 C 3,3 C 57 % 62 % 87 % 1011,1 hPa 0,0 l/m 5,3 km/h (1 Bft) W-SW 247 5 min 0,0 UV-I 12,7 C 24,9 C 4,2 km/h (1 Bft)
23.06.2013 19:30 21,5 C 25,6 C 21,1 C 24,8 C 24,8 C 3,3 C 57 % 63 % 87 % 1011,1 hPa 0,0 l/m 4,3 km/h (1 Bft) W-SW 247 5 min 0,0 UV-I 12,6 C 24,8 C 4,2 km/h (1 Bft)
23.06.2013 19:35 21,7 C 25,6 C 21,1 C 25,0 C 25,0 C 3,3 C 58 % 64 % 87 % 1011,1 hPa 0,0 l/m 3,9 km/h (1 Bft) S 180 5 min 0,0 UV-I 13,1 C 25,0 C 4,5 km/h (1 Bft)
23.06.2013 19:40 21,7 C 25,6 C 21,1 C 25,1 C 25,1 C 3,4 C 59 % 64 % 89 % 1011,1 hPa 0,0 l/m 2,6 km/h (1 Bft) W 270 5 min 0,0 UV-I 13,3 C 25,1 C 4,3 km/h (1 Bft)
23.06.2013 19:45 21,6 C 25,6 C 21,1 C 24,9 C 24,9 C 3,3 C 58 % 64 % 87 % 1011,1 hPa 0,0 l/m 3,2 km/h (1 Bft) NW 315 5 min 0,0 UV-I 13,0 C 24,9 C 5,8 km/h (2 Bft)
23.06.2013 19:50 21,4 C 25,6 C 20,8 C 24,7 C 24,7 C 3,3 C 59 % 64 % 87 % 1011,1 hPa 0,0 l/m 3,9 km/h (1 Bft) N 360 5 min 0,0 UV-I 13,0 C 24,7 C 3,9 km/h (1 Bft)
23.06.2013 19:55 21,2 C 25,6 C 20,8 C 24,4 C 24,4 C 3,2 C 59 % 65 % 84 % 1011,2 hPa 0,0 l/m 3,4 km/h (1 Bft) W 270 5 min 0,0 UV-I 12,9 C 24,4 C 5,3 km/h (1 Bft)
23.06.2013 20:00 20,8 C 25,6 C 20,7 C 24,0 C 24,0 C 3,2 C 60 % 65 % 84 % 1011,2 hPa 0,0 l/m 3,9 km/h (1 Bft) S 180 5 min 0,0 UV-I 12,7 C 24,0 C 4,8 km/h (1 Bft)
23.06.2013 20:05 20,7 C 25,6 C 20,5 C 23,6 C 23,6 C 2,9 C 60 % 66 % 76 % 1011,2 hPa 0,0 l/m 3,9 km/h (1 Bft) SW 225 5 min 0,0 UV-I 12,7 C 23,6 C 3,7 km/h (1 Bft)
23.06.2013 20:10 20,4 C 25,6 C 20,3 C 22,2 C 22,2 C 1,8 C 61 % 65 % 47 % 1011,2 hPa 0,0 l/m 4,3 km/h (1 Bft) N-NW 337 5 min 0,0 UV-I 12,6 C 22,2 C 7,4 km/h (2 Bft)
23.06.2013 20:15 20,3 C 25,6 C 20,3 C 21,2 C 21,2 C 0,9 C 61 % 65 % 24 % 1011,7 hPa 0,0 l/m 4,3 km/h (1 Bft) S 180 0 min 0,0 UV-I 12,5 C 21,2 C 6,6 km/h (2 Bft)
23.06.2013 20:20 20,0 C 25,6 C 19,8 C 20,0 C 20,0 C 0,0 C 62 % 66 % 0 % 1011,7 hPa 0,0 l/m 3,5 km/h (1 Bft) W-SW 247 0 min 0,0 UV-I 12,5 C 20,0 C 4,7 km/h (1 Bft)
23.06.2013 20:25 19,7 C 25,5 C 19,6 C 19,6 C 19,5 C 0,0 C 62 % 67 % 0 % 1011,7 hPa 0,0 l/m 3,1 km/h (1 Bft) SW 225 0 min 0,0 UV-I 12,2 C 19,5 C 2,6 km/h (1 Bft)
23.06.2013 20:30 19,5 C 25,6 C 19,2 C 19,3 C 18,8 C 0,0 C 63 % 68 % 0 % 1011,7 hPa 0,0 l/m 2,6 km/h (1 Bft) S-SW 202 0 min 0,0 UV-I 12,3 C 18,8 C 2,9 km/h (1 Bft)
23.06.2013 20:35 19,2 C 25,6 C 19,1 C 18,9 C 18,4 C 0,0 C 63 % 68 % 0 % 1011,3 hPa 0,0 l/m 2,3 km/h (1 Bft) SO 135 0 min 0,0 UV-I 12,0 C 18,4 C 0,0 km/h (0 Bft)
23.06.2013 20:40 19,0 C 25,6 C 18,8 C 18,7 C 18,0 C 0,0 C 64 % 69 % 0 % 1011,3 hPa 0,0 l/m 1,6 km/h (1 Bft) SW 225 0 min 0,0 UV-I 12,0 C 18,0 C 1,8 km/h (1 Bft)
23.06.2013 20:45 18,9 C 25,6 C 18,7 C 18,5 C 17,7 C 0,0 C 64 % 70 % 0 % 1011,3 hPa 0,0 l/m 1,1 km/h (1 Bft) W-SW 247 0 min 0,0 UV-I 11,9 C 17,7 C 3,7 km/h (1 Bft)
23.06.2013 20:50 18,7 C 25,6 C 18,5 C 18,3 C 17,4 C 0,0 C 65 % 71 % 0 % 1011,3 hPa 0,0 l/m 0,8 km/h (0 Bft) W-SW 247 0 min 0,0 UV-I 12,0 C 17,4 C 1,6 km/h (1 Bft)
23.06.2013 20:55 18,5 C 25,6 C 18,4 C 18,1 C 17,2 C 0,0 C 66 % 72 % 0 % 1011,8 hPa 0,0 l/m 1,0 km/h (0 Bft) W-SW 247 0 min 0,0 UV-I 12,0 C 17,2 C 1,6 km/h (1 Bft)
23.06.2013 21:00 18,3 C 25,6 C 18,0 C 17,8 C 16,9 C 0,0 C 67 % 73 % 0 % 1011,8 hPa 0,0 l/m 0,5 km/h (0 Bft) SW 225 0 min 0,0 UV-I 12,1 C 16,9 C 0,0 km/h (0 Bft)
23.06.2013 21:05 18,1 C 25,6 C 17,9 C 17,6 C 16,6 C 0,0 C 67 % 73 % 0 % 1011,8 hPa 0,0 l/m 0,2 km/h (0 Bft) SW 225 0 min 0,0 UV-I 11,9 C 16,6 C 0,0 km/h (0 Bft)
23.06.2013 21:10 17,8 C 25,6 C 17,7 C 17,3 C 16,3 C 0,0 C 68 % 73 % 0 % 1011,8 hPa 0,0 l/m 0,0 km/h (0 Bft) O-SO 112 0 min 0,0 UV-I 11,8 C 16,3 C 0,0 km/h (0 Bft)
23.06.2013 21:15 17,7 C 25,6 C 17,4 C 17,2 C 16,2 C 0,0 C 68 % 74 % 0 % 1012,2 hPa 0,0 l/m 0,0 km/h (0 Bft) O-NO 67 0 min 0,0 UV-I 11,7 C 16,2 C 0,0 km/h (0 Bft)
23.06.2013 21:20 17,4 C 25,6 C 17,2 C 16,9 C 16,0 C 0,0 C 70 % 74 % 0 % 1012,2 hPa 0,0 l/m 0,0 km/h (0 Bft) N-NW 337 0 min 0,0 UV-I 11,9 C 16,0 C 0,0 km/h (0 Bft)
23.06.2013 21:25 17,3 C 25,6 C 17,1 C 16,8 C 15,9 C 0,0 C 70 % 75 % 0 % 1012,2 hPa 0,0 l/m 0,0 km/h (0 Bft) NO 45 0 min 0,0 UV-I 11,8 C 15,9 C 0,0 km/h (0 Bft)
23.06.2013 21:30 17,1 C 25,6 C 17,0 C 16,7 C 15,8 C 0,0 C 71 % 75 % 0 % 1012,2 hPa 0,0 l/m 0,0 km/h (0 Bft) S-SW 202 0 min 0,0 UV-I 11,8 C 15,8 C 0,0 km/h (0 Bft)
23.06.2013 21:35 17,0 C 25,6 C 17,1 C 16,6 C 15,8 C 0,0 C 72 % 76 % 0 % 1012,6 hPa 0,0 l/m 0,0 km/h (0 Bft) S 180 0 min 0,0 UV-I 11,9 C 15,8 C 0,0 km/h (0 Bft)
23.06.2013 21:40 17,0 C 25,6 C 16,9 C 16,6 C 15,8 C 0,0 C 72 % 77 % 0 % 1012,6 hPa 0,0 l/m 0,0 km/h (0 Bft) W-SW 247 0 min 0,0 UV-I 11,9 C 15,8 C 0,0 km/h (0 Bft)
23.06.2013 21:45 16,9 C 25,6 C 16,9 C 16,5 C 15,8 C 0,0 C 73 % 77 % 0 % 1012,6 hPa 0,0 l/m 0,0 km/h (0 Bft) W 270 0 min 0,0 UV-I 12,0 C 15,8 C 0,0 km/h (0 Bft)
23.06.2013 21:50 16,9 C 25,6 C 16,9 C 16,5 C 15,8 C 0,0 C 73 % 78 % 0 % 1012,6 hPa 0,0 l/m 0,0 km/h (0 Bft) S 180 0 min 0,0 UV-I 12,0 C 15,8 C 0,0 km/h (0 Bft)
23.06.2013 21:55 16,8 C 25,6 C 16,8 C 16,5 C 15,8 C 0,0 C 74 % 78 % 0 % 1012,8 hPa 0,0 l/m 0,0 km/h (0 Bft) W 270 0 min 0,0 UV-I 12,1 C 15,8 C 0,0 km/h (0 Bft)
23.06.2013 22:00 16,7 C 25,6 C 16,7 C 16,4 C 15,9 C 0,0 C 75 % 78 % 0 % 1012,8 hPa 0,0 l/m 0,0 km/h (0 Bft) W 270 0 min 0,0 UV-I 12,2 C 15,9 C 0,0 km/h (0 Bft)
23.06.2013 22:05 16,6 C 25,6 C 16,6 C 16,4 C 16,0 C 0,0 C 75 % 78 % 0 % 1012,8 hPa 0,0 l/m 0,0 km/h (0 Bft) W 270 0 min 0,0 UV-I 12,1 C 16,0 C 0,0 km/h (0 Bft)
23.06.2013 22:10 16,7 C 25,7 C 16,6 C 16,5 C 16,0 C 0,0 C 76 % 79 % 0 % 1012,8 hPa 0,0 l/m 0,5 km/h (0 Bft) W 270 0 min 0,0 UV-I 12,4 C 16,0 C 2,9 km/h (1 Bft)
23.06.2013 22:15 16,6 C 25,7 C 16,7 C 16,4 C 15,9 C 0,0 C 77 % 79 % 0 % 1013,3 hPa 0,0 l/m 0,8 km/h (0 Bft) W 270 0 min 0,0 UV-I 12,5 C 15,9 C 0,0 km/h (0 Bft)
23.06.2013 22:20 16,6 C 25,7 C 16,5 C 16,3 C 15,8 C 0,0 C 77 % 79 % 0 % 1013,3 hPa 0,0 l/m 0,5 km/h (0 Bft) O-NO 67 0 min 0,0 UV-I 12,5 C 15,8 C 0,0 km/h (0 Bft)
23.06.2013 22:25 16,5 C 25,7 C 16,5 C 16,3 C 15,8 C 0,0 C 77 % 79 % 0 % 1013,3 hPa 0,0 l/m 0,0 km/h (0 Bft) O-NO 67 0 min 0,0 UV-I 12,5 C 15,8 C 0,0 km/h (0 Bft)
23.06.2013 22:30 16,4 C 25,7 C 16,4 C 16,2 C 15,7 C 0,0 C 77 % 79 % 0 % 1013,3 hPa 0,0 l/m 0,0 km/h (0 Bft) O-NO 67 0 min 0,0 UV-I 12,4 C 15,7 C 0,0 km/h (0 Bft)
23.06.2013 22:35 16,4 C 25,7 C 16,4 C 16,1 C 15,6 C 0,0 C 77 % 79 % 0 % 1013,6 hPa 0,0 l/m 0,0 km/h (0 Bft) O 90 0 min 0,0 UV-I 12,4 C 15,6 C 0,0 km/h (0 Bft)
23.06.2013 22:40 16,3 C 25,7 C 16,3 C 16,1 C 15,6 C 0,0 C 77 % 79 % 0 % 1013,6 hPa 0,0 l/m 0,0 km/h (0 Bft) W-SW 247 0 min 0,0 UV-I 12,3 C 15,6 C 0,0 km/h (0 Bft)
23.06.2013 22:45 16,3 C 25,7 C 16,3 C 16,1 C 15,6 C 0,0 C 78 % 80 % 0 % 1013,6 hPa 0,0 l/m 0,2 km/h (0 Bft) W-SW 247 0 min 0,0 UV-I 12,5 C 15,6 C 0,0 km/h (0 Bft)
23.06.2013 22:50 16,3 C 25,7 C 16,3 C 16,1 C 15,6 C 0,0 C 78 % 80 % 0 % 1013,6 hPa 0,0 l/m 0,2 km/h (0 Bft) S-SW 202 0 min 0,0 UV-I 12,5 C 15,6 C 0,0 km/h (0 Bft)
23.06.2013 22:55 16,3 C 25,7 C 16,2 C 16,0 C 15,5 C 0,0 C 78 % 80 % 0 % 1013,5 hPa 0,0 l/m 0,0 km/h (0 Bft) S-SW 202 0 min 0,0 UV-I 12,5 C 15,5 C 0,0 km/h (0 Bft)
23.06.2013 23:00 16,2 C 25,7 C 16,2 C 16,0 C 15,5 C 0,0 C 78 % 80 % 0 % 1013,5 hPa 0,0 l/m 0,0 km/h (0 Bft) O-NO 67 0 min 0,0 UV-I 12,4 C 15,5 C 0,0 km/h (0 Bft)
23.06.2013 23:05 16,1 C 25,6 C 16,1 C 15,9 C 15,4 C 0,0 C 78 % 80 % 0 % 1013,5 hPa 0,0 l/m 0,0 km/h (0 Bft) O-NO 67 0 min 0,0 UV-I 12,3 C 15,4 C 0,0 km/h (0 Bft)
23.06.2013 23:10 16,1 C 25,6 C 16,1 C 15,8 C 15,3 C 0,0 C 78 % 79 % 0 % 1013,5 hPa 0,0 l/m 0,0 km/h (0 Bft) N-NO 22 0 min 0,0 UV-I 12,3 C 15,3 C 0,0 km/h (0 Bft)
23.06.2013 23:15 16,0 C 25,6 C 16,0 C 15,7 C 15,2 C 0,0 C 78 % 79 % 0 % 1013,6 hPa 0,0 l/m 0,0 km/h (0 Bft) O-NO 67 0 min 0,0 UV-I 12,2 C 15,2 C 0,0 km/h (0 Bft)
23.06.2013 23:20 15,9 C 25,6 C 16,1 C 15,7 C 15,2 C 0,0 C 77 % 79 % 0 % 1013,6 hPa 0,0 l/m 0,0 km/h (0 Bft) W 270 0 min 0,0 UV-I 11,9 C 15,2 C 0,0 km/h (0 Bft)
23.06.2013 23:25 15,8 C 25,6 C 16,0 C 15,6 C 15,2 C 0,0 C 77 % 79 % 0 % 1013,6 hPa 0,0 l/m 0,0 km/h (0 Bft) W 270 0 min 0,0 UV-I 11,8 C 15,2 C 0,0 km/h (0 Bft)
23.06.2013 23:30 15,9 C 25,6 C 15,9 C 15,6 C 15,1 C 0,0 C 78 % 80 % 0 % 1013,6 hPa 0,0 l/m 0,0 km/h (0 Bft) SW 225 0 min 0,0 UV-I 12,1 C 15,1 C 0,0 km/h (0 Bft)
23.06.2013 23:35 15,9 C 25,6 C 15,9 C 15,6 C 15,1 C 0,0 C 78 % 80 % 0 % 1013,6 hPa 0,0 l/m 0,0 km/h (0 Bft) S-SW 202 0 min 0,0 UV-I 12,1 C 15,1 C 0,0 km/h (0 Bft)
23.06.2013 23:40 15,7 C 25,6 C 15,9 C 15,5 C 15,1 C 0,0 C 78 % 80 % 0 % 1013,6 hPa 0,0 l/m 0,0 km/h (0 Bft) O-NO 67 0 min 0,0 UV-I 11,9 C 15,1 C 0,0 km/h (0 Bft)
23.06.2013 23:45 15,6 C 25,6 C 15,9 C 15,4 C 15,1 C 0,0 C 78 % 80 % 0 % 1013,6 hPa 0,0 l/m 0,0 km/h (0 Bft) O-NO 67 0 min 0,0 UV-I 11,8 C 15,1 C 0,0 km/h (0 Bft)
23.06.2013 23:50 15,7 C 25,5 C 15,7 C 15,5 C 15,0 C 0,0 C 78 % 80 % 0 % 1013,6 hPa 0,0 l/m 0,0 km/h (0 Bft) S 180 0 min 0,0 UV-I 11,9 C 15,0 C 0,0 km/h (0 Bft)
23.06.2013 23:55 15,6 C 25,5 C 15,7 C 15,4 C 15,0 C 0,0 C 78 % 80 % 0 % 1013,9 hPa 0,0 l/m 0,0 km/h (0 Bft) S 180 0 min 0,0 UV-I 11,8 C 15,0 C 0,0 km/h (0 Bft)
_ Min-Zeit 05:40 09:50 05:35 05:20 05:20 00:00 18:30 17:55 00:00 07:00 - 00:00 - - - 00:00 05:40 05:20 00:00
Minimum _ 12,5 C 25,1 C 14,2 C 12,7 C 12,7 C 0,0 C 46 % 56 % 0 % 1010,3 hPa - 0,0 km/h (0 Bft) - - - 0,0 UV-I 10,6 C 12,7 C 0,0 km/h (0 Bft)
_ Max-Zeit 14:10 00:25 14:05 14:10 14:10 14:10 06:41 02:40 11:05 23:55 01:45 17:20 - - 07:00 06:30 13:40 14:10 17:10
Maximum _ 25,1 C 26,2 C 23,6 C 30,8 C 30,8 C 5,7 C 91 % 84 % 100 % 1013,9 hPa 0,7 l/m 11,1 km/h
SW (2 Bft)
- - 19 min 0,1 UV-I 15,7 C 30,8 C 22,5 km/h
S-SW (4 Bft)
Durchschnitt _ 18,5 C 25,6 C 18,6 C 20,3 C 20,1 C 1,8 C 72 % 74 % 45 % 1011,4 hPa #6,2 l/m 2,3 km/h (1 Bft) S - #5:55 h 0,1 UV-I 13,0 C 20,1 C 3,6 km/h (1 Bft)
2013 www.wetterstation-wechselburg.de